Terminal Aerodrome Forecast
Issued by NWS

Home | Current Version | Previous Version | Text Only | Print | Product List | Glossary On
Versions: 1 2 3 4 5 6 7 8 9 10 11 12 13 14 15 16 17 18 19 20 21 22 23 24 25 26 27 28 29 30
523
FTAK31 PANC 110534
TAFADL
TAF
PADL 110534Z 1106/1206 36013KT P6SM FEW050 BKN080 BKN250
      TEMPO 1106/1110 36013G21KT
     FM111200 35012KT P6SM SCT200
     FM111600 35015G22KT P6SM SCT030 OVC060 WS020/06030KT=

USA.gov is the U.S. government's official web portal to all federal, state and local government web resources and services.